This is the latest recevied weather packets stored in our database for station/object DM4XI-13. If no packets are shown the sender has not sent any weather packets the latest 10 day(s).
| Time | Temp. | Humidity | Pressure | Rain* | Wind** | Luminosity | Snow |
|---|---|---|---|---|---|---|---|
| 1777388593 | 20° C | 29% | 1015.9 hPa | 0 mm | 0.89 m/s, 160° | 309 W/m² | - |
| 1777388532 | 20° C | 30% | 1015.9 hPa | 0 mm | 0.89 m/s, 62° | 312 W/m² | - |
| 1777388471 | 20° C | 29% | 1016 hPa | 0 mm | 1.79 m/s, 158° | 315 W/m² | - |
| 1777388410 | 20.56° C | 28% | 1016.1 hPa | 0 mm | 2.24 m/s, 36° | 317 W/m² | - |
| 1777388349 | 20.56° C | 28% | 1015.9 hPa | 0 mm | 1.34 m/s, 52° | 319 W/m² | - |
| 1777388288 | 20.56° C | 29% | 1015.9 hPa | 0 mm | 1.79 m/s, 98° | 321 W/m² | - |
| 1777388227 | 20.56° C | 29% | 1015.9 hPa | 0 mm | 0.89 m/s, 150° | 323 W/m² | - |
| 1777388166 | 20.56° C | 29% | 1015.8 hPa | 0 mm | 0.45 m/s, 192° | 326 W/m² | - |
| 1777388105 | 20.56° C | 29% | 1015.9 hPa | 0 mm | 0.89 m/s, 221° | 328 W/m² | - |
| 1777388044 | 20.56° C | 29% | 1015.8 hPa | 0 mm | 2.68 m/s, 231° | 330 W/m² | - |
| 1777387983 | 20.56° C | 28% | 1015.8 hPa | 0 mm | 1.34 m/s, 85° | 333 W/m² | - |
| 1777387922 | 20.56° C | 29% | 1015.8 hPa | 0 mm | 0.45 m/s, 197° | 335 W/m² | - |
| 1777387861 | 20.56° C | 28% | 1015.9 hPa | 0 mm | 0.89 m/s, 142° | 338 W/m² | - |
| 1777387800 | 20.56° C | 28% | 1015.9 hPa | 0 mm | 0.45 m/s, 187° | 341 W/m² | - |
| 1777387739 | 20.56° C | 28% | 1015.9 hPa | 0 mm | 0.89 m/s, 225° | 342 W/m² | - |
| 1777387678 | 20.56° C | 27% | 1015.9 hPa | 0 mm | 1.34 m/s, 134° | 345 W/m² | - |
| 1777387617 | 20.56° C | 28% | 1015.9 hPa | 0 mm | 0.89 m/s, 330° | 347 W/m² | - |
| 1777387556 | 20.56° C | 29% | 1015.9 hPa | 0 mm | 0.45 m/s, 195° | 349 W/m² | - |
| 1777387495 | 20.56° C | 28% | 1015.8 hPa | 0 mm | 1.79 m/s, 0° | 352 W/m² | - |
| 1777387373 | 20.56° C | 29% | 1015.9 hPa | 0 mm | 0.89 m/s, 205° | 356 W/m² | - |
| 1777387312 | 20° C | 29% | 1015.9 hPa | 0 mm | 0.89 m/s, 222° | 357 W/m² | - |
| 1777387251 | 20° C | 30% | 1016 hPa | 0 mm | 0.89 m/s, 180° | 358 W/m² | - |
| 1777387190 | 20.56° C | 29% | 1015.8 hPa | 0 mm | 1.79 m/s, 148° | 362 W/m² | - |
| 1777387129 | 20.56° C | 29% | 1015.7 hPa | 0 mm | 0.89 m/s, 110° | 365 W/m² | - |
| 1777387068 | 20.56° C | 28% | 1016 hPa | 0 mm | 1.34 m/s, 345° | 366 W/m² | - |
* Rain latest hour (hover to see other rain measurements)
** Current wind speed in m/s (hover to see current wind gust speed)